Location: Unspecified
(35.6961°N, 0.0000°E)
Time: 17:43:50
(UTC+00:00)

Vanguard 3 - Pass Details

Date: 04 June 2019
Orbit: 508 x 3263 km, 33.3° (Epoch: 23 June)

Event Time Altitude Azimuth Distance (km) Brightness Sun altitude
Rises 18:55:19 0° 262° (W) 2,611 10.8 2.2°
Reaches altitude 10° 18:57:17 10° 259° (W) 1,785 9.9 1.8°
Maximum altitude 19:01:07 67° 177° (S) 691 6.8 1.1°
Drops below altitude 10° 19:06:38 10° 95° (E) 2,545 9.1 0.2°
Sets 19:09:55 0° 93° (E) 3,872 10.1 -0.4°
